Simultaneous Nadir Overpasses (SNOs) Predictions

Prediction of SNOs between METOP-B and NOAA-19 Satellite Orbit:

Table of predicted SNOs for the next 14.0 days since TLE Epoch: 8/7/2015
Index Date (METOP-B) Time (METOP-B) Lat,Lon (METOP-B) SZA (METOP-B ) Date (NOAA-19) Time (NOAA-19) Lat,Lon (NOAA-19) SZA (NOAA-19 ) Distance(km) Time Diff (sec)
1 08/13/2015 16:30:35 -75.36, 110.92 119.33 08/13/2015 16:29:23 -75.36, 109.51 119.29 39.64 72
2 08/13/2015 17:21:19 75.14, -82.39 60.48 08/13/2015 17:20:15 75.14, -82.53 60.48 3.93 64
3 08/13/2015 18:12:02 -75.10, 84.82 119.55 08/13/2015 18:11:20 -75.11, 84.80 119.54 1.01 42
4 08/13/2015 19:02:42 75.07,-107.93 60.43 08/13/2015 19:02:16 75.06,-107.81 60.43 3.31 26
5 08/13/2015 19:53:24 -75.08, 59.41 119.55 08/13/2015 19:53:22 -75.08, 59.37 119.55 1.40 2
6
